Weather History for Miramar MCAS, CA

Change the Weather History Date:

Thursday, February 6, 2014

  Actual Average Record
Temperature  
Mean Temperature 54 °F -  
Max Temperature 61 °F 64 °F 78 °F (2006)
Min Temperature 48 °F 44 °F 39 °F (2002)
Degree Days  
Heating Degree Days 10    
Growing Degree Days 4 (Base 50)    
Moisture  
Dew Point 47 °F    
Average Humidity 77    
Maximum Humidity 93    
Minimum Humidity 52    
Precipitation  
Precipitation 0.21 in - - ()
Sea Level Pressure  
Sea Level Pressure 30.04 in    
Wind  
Wind Speed 6 mph (SSE)    
Max Wind Speed 13 mph    
Max Gust Speed -    
Visibility 8 miles    
Events Rain    
Averages and records for this station are not official NWS values.
T = Trace of Precipitation, MM = Missing Value Source: NWS Daily Summary

Daily Weather History Graph

Daily Weather History Graph

Search for Another Location

Airport:

Trip Planner

Search our weather history database for the weather conditions in past years. The results will help you decide how hot, cold, wet, or windy it might be!

Date:

Astronomy

Feb. 06, 2014 Rise Set
Actual Time 6:39 AM PST 5:25 PM PST
Civil Twilight 6:14 AM PST 5:51 PM PST
Nautical Twilight 5:44 AM PST 6:20 PM PST
Astronomical Twilight 5:15 AM PST 6:49 PM PST
Moon 11:01 AM PST (2/6) 12:00 AM PST (2/6)
Length of Visible Light 11h 37m
Length of Day
10h 46m
Waxing Crescent, 50% of the Moon is Illuminated
Feb 6
Waxing Crescent
Feb 14
Full
Feb 22
Last Quarter
Mar 1
New
Mar 8
First Quarter

Hourly Weather History & Observations

Time (PST) Temp. Dew Point Humidity Pressure Visibility Wind Dir Wind Speed Gust Speed Precip Events Conditions
12:55 AM 50.0 °F 44.1 °F 80% 30.06 in 10.0 mi East 3.5 mph - N/A   Mostly Cloudy
1:55 AM 50.0 °F 44.1 °F 80% 30.06 in 10.0 mi East 4.6 mph - N/A   Scattered Clouds
2:55 AM 48.9 °F 44.1 °F 83% 30.04 in 10.0 mi ESE 4.6 mph - N/A   Mostly Cloudy
3:55 AM 50.0 °F 43.0 °F 77% 30.04 in 10.0 mi East 4.6 mph - N/A   Mostly Cloudy
4:55 AM 51.1 °F 43.0 °F 74% 30.04 in 10.0 mi East 6.9 mph - N/A   Mostly Cloudy
5:55 AM 50.0 °F 43.0 °F 77% 30.04 in 10.0 mi ESE 4.6 mph - N/A   Mostly Cloudy
6:55 AM 51.1 °F 43.0 °F 74% 30.06 in 10.0 mi ENE 3.5 mph - N/A   Mostly Cloudy
7:55 AM 53.1 °F 44.1 °F 71% 30.05 in 10.0 mi SSE 3.5 mph - N/A   Mostly Cloudy
8:55 AM 57.0 °F 45.0 °F 64% 30.06 in 10.0 mi SSE 8.1 mph - N/A   Scattered Clouds
9:55 AM 59.0 °F 46.0 °F 62% 30.08 in 10.0 mi South 6.9 mph - N/A   Mostly Cloudy
10:22 AM 59.0 °F 45.0 °F 60% 30.09 in 10.0 mi South 9.2 mph - N/A   Mostly Cloudy
10:55 AM 57.9 °F 45.0 °F 62% 30.07 in 10.0 mi South 11.5 mph - N/A   Mostly Cloudy
11:55 AM 59.0 °F 46.0 °F 62% 30.06 in 10.0 mi SW 11.5 mph - N/A   Mostly Cloudy
12:55 PM 61.0 °F 43.0 °F 52% 30.01 in 10.0 mi SW 10.4 mph - N/A   Mostly Cloudy
1:55 PM 61.0 °F 46.0 °F 58% 30.00 in 10.0 mi SW 12.7 mph - N/A   Mostly Cloudy
2:55 PM 59.0 °F 44.1 °F 58% 30.00 in 10.0 mi WSW 9.2 mph - N/A   Mostly Cloudy
3:55 PM 55.0 °F 48.9 °F 80% 30.01 in 5.0 mi WSW 6.9 mph - 0.01 in Rain Light Rain
4:14 PM 55.0 °F 50.0 °F 83% 30.02 in 10.0 mi West 5.8 mph - 0.01 in Rain Light Rain
4:41 PM 54.0 °F 50.0 °F 86% 30.03 in 3.0 mi West 9.2 mph - 0.03 in Rain Light Rain
4:44 PM 54.0 °F 50.0 °F 86% 30.03 in 2.5 mi West 9.2 mph - 0.04 in Rain Heavy Rain
4:49 PM 53.6 °F 50.0 °F 88% 30.03 in 4.0 mi West 4.6 mph - 0.04 in Rain Rain
4:55 PM 54.0 °F 50.0 °F 86% 30.03 in 4.0 mi West 6.9 mph - 0.05 in Rain Light Rain
5:55 PM 53.1 °F 46.0 °F 77% 30.03 in 7.0 mi Calm Calm - 0.05 in Rain Light Rain
6:55 PM 52.0 °F 48.0 °F 86% 30.01 in 7.0 mi East 5.8 mph - 0.02 in Rain Light Rain
7:55 PM 52.0 °F 48.9 °F 89% 30.04 in 6.0 mi SSE 3.5 mph - N/A Rain Light Rain
8:37 PM 52.0 °F 50.0 °F 93% 30.03 in 4.0 mi SE 5.8 mph - 0.03 in Rain Light Rain
8:55 PM 52.0 °F 50.0 °F 93% 30.03 in 6.0 mi SE 3.5 mph - 0.03 in Rain Light Rain
9:55 PM 52.0 °F 48.9 °F 89% 30.04 in 4.0 mi SSE 9.2 mph - 0.01 in Rain Light Rain
10:55 PM 52.0 °F 48.9 °F 89% 30.04 in 4.0 mi SE 9.2 mph - 0.01 in Rain Light Rain
11:55 PM 52.0 °F 50.0 °F 93% 30.04 in 1.5 mi SE 5.8 mph - 0.03 in Rain Light Rain